Location: Unspecified
(47.6579°N, 23.5637°E)
Time: 13:10:05
(UTC+02:00)

Envisat - Pass Details

Date: 30 November 2021
Orbit: 764 x 766 km, 98.2° (Epoch: 23 January)

Event Time Altitude Azimuth Distance (km) Brightness Sun altitude
Rises 04:59:54 0° 19° (NNE) 3,245 6.5 -28.2°
Reaches altitude 10° 05:02:20 10° 26° (NNE) 2,314 5.7 -27.8°
Maximum altitude 05:07:11 44° 98° (E) 1,061 4.1 -27.0°
Drops below altitude 10° 05:12:01 10° 170° (S) 2,296 5.6 -26.2°
Sets 05:14:24 0° 177° (S) 3,217 6.3 -25.8°
